Regional Weather Roundup
Issued by NWS New Orleans/Baton Rouge, LA

Home | Current Version | Previous Version | Graphics & Text | Print | Product List | Glossary On
Versions: 1 2 3 4 5 6 7 8 9 10 11 12 13 14 15 16 17 18 19 20 21 22 23 24 25 26 27 28 29 30 31 32 33 34 35 36 37 38 39 40 41 42 43 44 45 46 47 48 49 50
668
ASUS44 KLIX 012001
RWRLIX
NEW ORLEANS REGIONAL WEATHER ROUNDUP
NATIONAL WEATHER SERVICE NEW ORLEANS LA
300 PM CDT WED OCT 01 2014

NOTE: "FAIR" INDICATES FEW OR NO CLOUDS BELOW 12,000 FEET WITH NO
      SIGNIFICANT WEATHER AND/OR OBSTRUCTIONS TO VISIBILITY.
      SKY/WX - SKY CONDITION AND SIGNIFICANT WEATHER.
      TMP - AIR TEMPERATURE.     DP    - DEWPOINT TEMPERATURE.
      RH  - RELATIVE HUMIDITY.   PRES  - PRESSURE.
      HI  - HEAT INDEX.          WCI   - WIND CHILL INDEX.

*  THESE STATIONS ARE NOT NWS OR FAA STATIONS AND ARE NOT UNDER
   NWS QUALITY CONTROL.

LAZ038-040-048-061>063-065>067-069-012100-
SOUTHEAST LOUISIANA

CITY           SKY/WX    TMP DP  RH WIND       PRES   REMARKS
N.O. AUDUBON     N/A     85  74  70 MISG        N/A
N.O. INTL ARPT PTSUNNY   84  73  69 SE9       29.89F
N.O. LAKEFRONT CLOUDY    83  74  74 SE10      29.90F
N.O. DOWNTOWN* MOCLDY    82  72  69 S8        29.90F
SLIDELL        PTSUNNY   83  72  69 VRB6      29.90F
BATON ROUGE    PTSUNNY   84  72  67 SE9       29.87F
BOOTHVILLE     CLOUDY    81  75  82 E6        29.92S
BELLE CHASSE   PTSUNNY   84  72  67 SE12      29.90S
BOGALUSA*      MOCLDY    85  70  61 S7        29.92S
GALLIANO*      NOT AVBL
NEW ROADS*     MOCLDY    86  74  67 SE8       29.87S
GONZALES*      CLOUDY    83  78  83 E8        29.86F
HAMMOND*       NOT AVBL
HOUMA*         PTSUNNY  N/A N/A N/A SE12      29.88F
PORT FOURCHON* MOCLDY    81  77  89 S15G21    29.93S

$$

MSZ070-080>082-012100-
SOUTHERN MISSISSIPPI

CITY           SKY/WX    TMP DP  RH WIND       PRES   REMARKS
MCCOMB         MOSUNNY   85  70  60 S9        29.90F
GULFPORT       CLOUDY    79  72  79 SE13      29.92R
BILOXI         CLOUDY    81  73  77 S8        29.93R
PASCAGOULA     CLOUDY    82  71  69 S8        29.93S
STENNIS ARPT*  PTSUNNY   81  72  74 SE8       29.92S

$$

COASTAL OBSERVATIONS
LAKE AND NEARSHORE STATIONS

STATION/POSITION TIME  TEMP    WIND        PRES    WAVE
                       AIR SEA DIR/SP/G            HT/PER
                 (UTC) (F)     (DEG/KT/KT) (MB)    (FT/S)
PASCAGOULA       1900   82     120/  6/ 11 1012.8
WAVELAND YACHT   1900   78     120/ 12/ 12 1012.5
GRAND ISLE       1900   78 81  170/  5/  9 1013.3
SOUTHWEST PASS   1900   83 86  140/  8/  9 1013.2
NEW CANAL        1900   83 77  140/  2/  7 1013.1
SHELL BEACH      1900   80 76  110/ 11/ 13 1012.7

OFFSHORE STATIONS

STATION/POSITION TIME  TEMP    WIND        PRES    WAVE
                       AIR SEA DIR/SP/G            HT/PER
                 (UTC) (F)     (DEG/KT/KT) (MB)    (FT/S)
64 S DAUPHIN ISL 1915   80 83  120/  8/ 10 1013.3    1/ 5

$$




USA.gov is the U.S. government's official web portal to all federal, state and local government web resources and services.